Location: Eaton Estates
(41.3089°N, 82.0057°W)
Time: 08:07:31
(UTC+00:00)

Cosmos 1151 Rocket - Visible Passes

Search period start: 02 December 2023 00:00
Search period end: 12 December 2023 00:00
Orbit: 589 x 613 km, 82.5° (Epoch: 01 December)

Date Brightness Start Highest point End Pass type
(mag) Time Alt. Az. Time Alt. Az. Time Alt. Az.
03 Dec 5.8 11:40:18 10° NE 11:42:45 15° ENE 11:45:11 10° ESE visible
04 Dec 5.4 11:51:07 10° NNE 11:54:34 23° ENE 11:58:02 10° SE visible
05 Dec 4.6 12:02:20 10° N 12:06:21 36° ENE 12:10:21 10° SE visible
08 Dec 5.9 11:01:05 10° NE 11:03:31 15° ENE 11:05:56 10° ESE visible
09 Dec 5.4 11:11:53 10° NNE 11:15:20 23° ENE 11:18:47 10° SE visible
10 Dec 4.6 11:23:05 10° N 11:27:06 36° ENE 11:31:06 10° SE visible
11 Dec 3.6 11:34:29 10° N 11:38:47 59° E 11:43:05 10° SSE visible
